Location: Waco, TX
(31.5480°N, 97.1670°W)
Time: 08:15:43
(UTC-05:00)

ISS - Pass Details

Date: 17 October 2019
Orbit: 411 x 421 km, 51.6° (Epoch: 18 October)

Event Time Altitude Azimuth Distance (km) Brightness Sun altitude
Rises 18:05:25 0° 299° (WNW) 2,340 0.8 9.3°
Reaches altitude 10° 18:07:52 10° 281° (WNW) 1,474 0.3 8.8°
Maximum altitude 18:10:21 20° 232° (SW) 1,014 -0.3 8.3°
Drops below altitude 10° 18:12:50 10° 183° (S) 1,466 -0.7 7.8°
Sets 18:15:16 0° 166° (SSE) 2,322 0.0 7.3°
